Location: Isola Pescaroli
(45.0500°N, 10.1667°E)
Time: 00:56:33
(UTC+00:00)

SL-4 R/B - Pass Details

Date: 21 June 2021
Orbit: 428 x 662 km, 51.6° (Epoch: 29 July)

Event Time Altitude Azimuth Distance (km) Brightness Sun altitude
Rises 20:07:08 0° 204° (SSW) 2,823 5.4 -8.5°
Reaches altitude 10° 20:09:47 10° 191° (SSW) 1,881 4.4 -8.8°
Maximum altitude 20:13:16 25° 137° (SE) 1,148 3.0 -9.2°
Drops below altitude 10° 20:16:34 10° 82° (E) 1,769 4.3 -9.6°
Sets 20:18:58 0° 68° (ENE) 2,614 5.3 -9.9°
